Location: Recife
(8.0585°S, 34.8848°W)
Time: 10:04:12
(UTC-03:00)

Courier 1B Rocket - Pass Details

Date: 20 April 2026
Orbit: 920 x 1201 km, 28.2° (Epoch: 13 May)

Event Time Altitude Azimuth Distance (km) Brightness Sun altitude
Rises 07:15:41 0° 232° (SW) 3,667 7.5 26.5°
Reaches altitude 10° 07:20:10 10° 204° (SSW) 2,782 7.1 27.6°
Maximum altitude 07:22:59 13° 179° (S) 2,627 7.2 28.2°
Drops below altitude 10° 07:25:52 10° 154° (SSE) 2,869 7.6 28.9°
Sets 07:30:41 0° 126° (SE) 3,899 8.6 30.0°
